This is the latest recevied weather packets stored in our database for station/object DL6DBZ-10. If no packets are shown the sender has not sent any weather packets the latest 10 day(s).
| Time | Temp. | Humidity | Pressure | Rain* | Wind** | Luminosity | Snow |
|---|---|---|---|---|---|---|---|
| 1788160078 | 67° F | 63% | 762.7 mmHg | - | - | - | - |
| 1788159477 | 67° F | 65% | 762.6 mmHg | - | - | - | - |
| 1788158877 | 66° F | 68% | 762.6 mmHg | - | - | - | - |
| 1788158277 | 65° F | 70% | 762.7 mmHg | - | - | - | - |
| 1788157677 | 64° F | 72% | 762.7 mmHg | - | - | - | - |
| 1788157077 | 64° F | 71% | 762.7 mmHg | - | - | - | - |
| 1788156477 | 64° F | 73% | 762.5 mmHg | - | - | - | - |
| 1788155876 | 65° F | 70% | 762.5 mmHg | - | - | - | - |
| 1788155276 | 64° F | 71% | 762.4 mmHg | - | - | - | - |
| 1788154676 | 65° F | 70% | 762.5 mmHg | - | - | - | - |
| 1788154075 | 64° F | 73% | 762.4 mmHg | - | - | - | - |
| 1788153475 | 63° F | 74% | 762.5 mmHg | - | - | - | - |
| 1788152875 | 61° F | 79% | 762.5 mmHg | - | - | - | - |
| 1788152275 | 61° F | 80% | 762.5 mmHg | - | - | - | - |
| 1788151674 | 61° F | 82% | 762.5 mmHg | - | - | - | - |
| 1788151074 | 60° F | 81% | 762.4 mmHg | - | - | - | - |
| 1788150474 | 60° F | 80% | 762.4 mmHg | - | - | - | - |
| 1788149874 | 60° F | 79% | 762.4 mmHg | - | - | - | - |
| 1788149274 | 60° F | 79% | 762.4 mmHg | - | - | - | - |
| 1788148677 | 61° F | 79% | 762.3 mmHg | - | - | - | - |
| 1788148073 | 61° F | 79% | 762.3 mmHg | - | - | - | - |
| 1788147473 | 61° F | 80% | 762.3 mmHg | - | - | - | - |
| 1788146873 | 61° F | 77% | 762.2 mmHg | - | - | - | - |
| 1788146273 | 61° F | 76% | 762.3 mmHg | - | - | - | - |
| 1788145675 | 62° F | 75% | 762.3 mmHg | - | - | - | - |
* Rain since midnight (hover to see other rain measurements)
** Current wind speed in m/s (hover to see current wind gust speed)